Wind_Speed
14 13 12 11 10 8 4 4 5 3 3 3 5 7 6 7 6 7 7 8 10 10 10 11 14 15 17 17 18 20 22 24 25 26 26 25 25 24 23 23 23 24 24
14 12 12 10 10 7 0 2 4 3 3 6 8 5 7 7 7 6 7 8 9 9 10 11 13 15 15 17 18 19 22 24 25 25 24 23 23 23 23 23 24 24 24
15 12 12 10 8 6 2 2 3 3 5 9 6 5 7 6 6 5 6 7 8 8 9 11 13 14 16 17 18 20 22 23 24 23 23 23 23 24 24 24 24 25 25
16 12 10 10 8 3 2 1 2 4 7 7 3 6 7 3 3 4 4 5 6 7 9 11 13 15 16 18 18 20 21 22 23 23 23 23 23 24 24 25 26 26 27
17 14 12 9 7 5 2 2 1 2 8 6 2 5 5 2 1 2 3 4 4 6 9 10 13 14 16 17 19 20 21 23 23 23 23 22 22 23 24 25 26 27 28
19 15 13 11 9 6 5 3 2 5 9 6 1 4 5 5 3 3 2 3 2 5 7 10 12 14 16 17 18 19 21 21 22 22 22 22 23 23 25 26 28 30 30
19 16 13 11 10 7 5 6 6 9 9 4 3 5 5 6 6 5 4 2 1 3 6 9 11 13 14 17 18 19 20 21 21 21 21 22 23 24 26 28 29 29 29
19 16 14 11 11 8 8 8 9 12 9 6 5 7 6 4 5 4 3 1 0 3 5 7 9 12 14 16 17 18 19 20 21 21 21 21 23 25 27 29 30 29 30
21 18 16 14 12 10 10 9 10 11 9 7 7 7 6 5 4 5 4 3 2 3 5 8 10 12 14 15 16 18 19 19 20 20 21 21 22 24 26 27 27 28 30
23 20 17 15 13 12 12 10 11 11 9 10 9 7 6 6 6 6 6 5 3 2 4 7 9 12 13 14 16 17 17 19 20 20 20 21 22 24 25 26 28 29 30
24 20 18 16 16 14 13 11 11 10 10 10 10 9 7 5 4 5 5 5 2 2 4 6 8 11 13 14 15 16 17 18 19 19 20 20 21 22 24 25 27 28 30
23 21 19 19 19 18 13 12 13 11 10 10 10 9 7 6 6 7 6 5 2 2 5 7 10 12 13 14 15 16 16 17 17 18 19 19 20 21 22 24 26 28 30
23 22 21 20 22 18 14 13 13 10 10 9 9 9 7 7 9 8 6 6 4 3 5 8 9 11 13 14 14 15 15 16 16 17 17 18 19 20 21 22 24 27 29
21 21 21 21 23 18 14 13 12 11 10 10 9 9 9 9 10 9 8 7 5 4 5 8 10 11 13 14 14 15 15 15 16 16 16 17 18 19 20 21 22 25 28
25 24 23 23 24 19 14 13 12 10 10 10 10 10 11 12 9 8 7 7 7 5 6 9 10 11 12 14 14 15 15 14 15 15 15 16 17 18 18 19 20 23 25
29 27 26 26 25 20 16 15 13 11 11 11 11 10 11 13 12 10 9 10 8 8 8 9 11 12 13 14 14 15 15 14 14 14 15 15 16 17 17 18 19 20 23
30 27 26 27 25 21 19 15 12 13 12 12 11 9 13 13 13 12 12 11 10 9 10 10 11 12 13 15 15 15 15 14 14 14 14 15 15 16 16 17 17 18 19
30 27 27 27 25 22 19 16 13 14 12 12 11 11 12 13 13 13 13 12 12 11 11 11 11 13 14 14 15 15 15 15 14 13 13 14 14 15 16 17 16 16 17
30 28 28 27 25 22 18 15 15 16 14 13 12 12 12 14 14 14 14 14 14 13 13 12 12 13 13 14 14 15 15 15 14 14 14 14 14 14 15 16 16 16 16
30 29 27 26 24 21 19 17 17 16 15 14 13 14 14 15 15 16 16 15 15 14 14 13 14 14 14 14 14 14 14 15 15 14 15 15 15 16 15 16 16 17 17
31 28 28 26 23 20 18 17 17 16 16 16 15 15 15 16 16 16 17 16 16 15 15 15 15 15 15 15 14 14 15 15 15 14 14 16 15 16 16 16 16 17 17
33 31 30 27 23 20 18 17 17 18 17 17 16 16 17 18 17 17 18 17 17 16 17 17 17 17 17 16 15 15 15 15 14 15 14 15 16 17 16 16 16 17 18
35 33 31 28 24 22 21 20 18 18 17 17 17 18 19 18 18 17 18 18 18 18 19 19 18 19 17 18 16 16 16 16 16 15 14 14 16 16 16 16 17 17 18
36 34 33 29 27 25 24 23 21 20 19 18 18 19 20 20 19 19 19 19 19 19 19 20 20 20 20 19 18 17 17 17 17 17 17 14 18 17 17 17 17 17 17
39 37 34 32 30 28 27 26 25 23 22 20 19 20 20 20 20 20 20 19 19 20 20 21 21 21 21 20 19 19 19 19 19 18 19 18 18 20 19 19 18 19 18
38 37 35 33 32 31 30 29 27 26 25 24 22 22 21 21 22 21 20 21 19 21 21 23 23 23 22 21 20 20 20 20 21 21 20 21 20 22 21 20 21 21 19
Wind_Direction
178 171 165 157 154 150 116 83 75 50 33 88 111 98 49 27 30 38 60 58 50 45 43 38 37 31 27 24 19 15 13 11 9 9 9 6 7 5 5 5 3 3 359
185 182 174 174 174 179 26 50 68 59 66 116 122 74 37 26 36 48 67 55 52 45 38 35 33 28 24 24 18 14 12 10 9 8 7 6 8 6 5 5 4 359 1
194 195 187 187 188 202 279 88 91 84 116 132 106 50 20 19 58 69 66 58 50 44 34 29 28 22 21 20 17 14 12 9 8 8 7 7 7 8 7 4 3 1 360
199 203 205 201 226 225 335 352 79 101 139 134 72 26 6 15 81 87 76 58 46 45 33 25 22 18 17 14 15 14 10 8 8 7 7 8 7 8 6 3 5 2 359
200 206 217 226 234 254 264 261 92 144 156 152 50 12 338 305 181 138 113 75 32 35 33 24 19 16 14 11 11 10 8 8 7 8 8 6 7 7 7 6 5 4 2
203 208 222 232 240 251 237 253 226 199 179 180 251 350 322 302 251 203 156 101 36 24 26 24 19 17 12 9 8 7 8 9 7 6 7 6 9 7 9 9 7 6 2
207 208 219 230 240 234 226 239 224 197 191 207 270 331 306 272 225 208 201 150 83 30 26 21 16 11 9 8 5 4 6 5 5 7 6 6 8 9 11 9 8 6 4
210 212 217 220 230 229 232 230 218 195 195 222 264 303 284 266 243 227 235 206 43 25 21 23 15 8 8 6 2 1 3 5 4 6 7 9 9 9 11 10 9 7 6
213 214 215 215 220 226 224 217 208 195 208 242 267 280 262 280 264 244 261 274 299 336 1 12 10 4 4 2 359 360 1 2 3 6 5 8 10 10 11 11 10 9 8
214 212 213 210 215 213 216 199 195 212 233 249 259 256 252 264 259 234 236 242 243 291 345 359 359 354 358 358 357 357 358 1 3 4 4 7 9 10 10 11 11 10 9
211 213 211 205 209 198 190 194 214 237 244 242 243 248 257 262 266 246 241 243 265 324 336 347 348 347 352 355 355 354 357 0 1 3 4 6 8 9 11 12 12 10 10
210 210 208 200 202 193 198 209 222 223 232 231 242 251 265 273 246 229 242 252 273 313 324 338 342 343 347 350 351 352 355 358 359 2 3 4 6 8 10 13 13 12 11
212 210 205 202 201 196 205 214 211 221 235 241 250 251 250 252 236 225 234 247 257 291 314 325 329 334 341 347 349 349 350 355 358 1 0 1 3 6 10 13 14 14 12
209 206 203 206 202 202 208 207 215 226 237 241 245 253 261 254 229 221 226 234 247 265 296 309 321 332 338 342 345 344 347 352 355 357 357 357 0 4 8 12 14 16 12
201 200 202 207 205 207 210 213 221 228 236 240 237 242 252 265 251 235 240 247 251 262 282 299 314 324 331 335 341 342 344 347 348 352 352 354 357 0 3 8 13 16 12
201 199 203 203 206 210 214 215 222 231 238 240 234 240 252 256 253 243 245 247 249 261 277 293 308 318 327 331 337 338 338 339 342 347 347 350 354 353 358 4 9 12 11
202 202 206 203 208 210 215 216 223 232 234 240 237 235 244 250 250 242 241 245 250 260 273 289 303 314 322 326 332 333 331 332 335 340 343 346 347 347 354 358 3 5 8
202 204 205 202 206 209 210 215 222 234 236 241 239 240 244 251 249 243 243 248 251 256 268 282 296 307 314 319 325 327 324 325 327 333 336 338 338 341 346 353 354 354 0
203 207 202 199 201 202 207 214 226 235 237 240 244 248 251 252 248 246 244 245 249 256 266 278 289 296 305 312 318 322 320 317 322 326 329 329 332 334 342 344 347 348 349
205 204 197 193 193 199 208 215 226 234 239 241 246 252 257 254 249 248 248 247 251 258 267 274 281 290 298 304 312 316 315 313 317 319 322 324 325 327 332 336 341 342 340
205 200 194 193 196 202 212 218 227 233 237 241 245 251 256 254 253 254 254 252 254 258 265 273 279 284 291 298 304 309 311 311 310 312 313 315 317 315 320 328 333 334 334
204 199 196 197 201 209 214 220 226 232 237 241 244 249 253 254 254 256 258 258 258 261 264 270 275 279 286 292 299 304 305 305 304 305 306 306 307 308 313 318 324 326 328
204 201 201 203 205 212 218 223 228 236 241 244 245 248 253 255 254 255 256 256 257 258 262 266 272 276 282 285 291 296 298 299 300 301 303 301 301 303 308 309 314 319 322
206 205 206 207 211 217 222 227 232 237 243 245 247 248 251 253 254 253 255 259 258 258 258 262 266 271 276 281 286 290 293 296 299 302 302 301 299 301 302 302 305 309 313
209 209 209 212 217 221 226 231 235 239 245 248 248 249 250 253 255 254 258 264 263 262 258 260 263 266 271 275 280 285 289 293 295 298 300 302 295 297 298 298 300 301 305
212 214 215 217 220 222 227 231 235 239 244 247 247 249 251 253 254 255 259 263 266 264 258 258 260 264 268 272 275 280 284 287 289 291 291 296 295 295 294 294 297 299 302
Height
3181 3182 3184 3185 3187 3188 3189 3189 3189 3189 3188 3189 3189 3189 3189 3188 3187 3187 3186 3186 3185 3184 3183 3182 3180 3179 3177 3175 3173 3170 3167 3164 3160 3156 3152 3149 3146 3143 3140 3136 3132 3129 3125
3180 3182 3184 3186 3186 3187 3187 3188 3188 3188 3188 3189 3189 3189 3189 3188 3187 3188 3187 3186 3186 3185 3185 3183 3181 3180 3178 3176 3173 3171 3167 3164 3161 3157 3154 3150 3147 3144 3140 3136 3132 3128 3124
3179 3181 3183 3185 3186 3186 3187 3188 3188 3188 3188 3188 3189 3189 3189 3188 3188 3188 3188 3187 3187 3186 3185 3184 3182 3180 3178 3176 3174 3171 3168 3165 3162 3158 3155 3151 3147 3143 3139 3135 3132 3127 3124
3178 3180 3182 3184 3185 3185 3185 3187 3187 3187 3187 3188 3190 3189 3189 3189 3188 3189 3189 3188 3187 3187 3186 3184 3183 3181 3179 3176 3174 3172 3169 3166 3163 3158 3155 3151 3147 3144 3140 3136 3132 3127 3123
3176 3178 3180 3182 3183 3184 3185 3186 3186 3186 3187 3188 3189 3189 3190 3189 3189 3189 3189 3188 3187 3187 3186 3185 3183 3182 3180 3177 3175 3172 3170 3166 3163 3159 3155 3151 3148 3144 3141 3136 3131 3127 3122
3174 3176 3178 3180 3182 3184 3185 3185 3185 3186 3186 3188 3189 3189 3189 3189 3189 3189 3189 3188 3188 3187 3186 3185 3184 3182 3180 3178 3175 3172 3169 3167 3163 3159 3156 3152 3148 3144 3140 3135 3131 3126 3121
3172 3174 3176 3178 3180 3182 3183 3183 3184 3185 3186 3188 3189 3189 3189 3190 3190 3189 3189 3188 3188 3187 3186 3185 3184 3183 3181 3178 3176 3173 3169 3166 3163 3160 3156 3152 3148 3144 3139 3135 3130 3126 3122
3169 3172 3174 3177 3178 3179 3181 3181 3183 3184 3185 3187 3188 3189 3189 3190 3190 3189 3189 3188 3188 3187 3187 3186 3185 3183 3181 3178 3176 3173 3170 3167 3163 3159 3156 3153 3148 3143 3139 3134 3130 3126 3121
3166 3169 3172 3175 3177 3177 3178 3179 3181 3183 3185 3186 3187 3189 3188 3188 3189 3189 3189 3189 3188 3188 3186 3185 3184 3182 3180 3178 3175 3173 3169 3166 3163 3160 3156 3152 3149 3144 3140 3136 3132 3127 3121
3164 3167 3170 3172 3174 3175 3176 3178 3180 3182 3183 3184 3185 3187 3187 3187 3187 3188 3189 3189 3188 3187 3186 3185 3184 3182 3180 3177 3175 3172 3169 3166 3163 3159 3156 3152 3148 3144 3140 3135 3130 3126 3121
3161 3164 3167 3170 3172 3174 3175 3176 3179 3180 3181 3183 3184 3185 3185 3186 3186 3187 3187 3188 3187 3186 3186 3185 3183 3182 3179 3177 3175 3172 3169 3166 3163 3159 3156 3153 3149 3144 3140 3136 3131 3127 3122
3158 3161 3164 3167 3170 3173 3174 3176 3178 3179 3179 3181 3182 3183 3184 3184 3185 3186 3186 3186 3186 3185 3184 3183 3182 3181 3178 3176 3174 3171 3168 3165 3162 3159 3156 3153 3149 3145 3141 3136 3132 3127 3123
3154 3158 3162 3164 3168 3171 3172 3174 3176 3177 3179 3179 3180 3181 3182 3183 3184 3184 3184 3185 3184 3184 3183 3182 3181 3180 3178 3175 3172 3170 3168 3165 3162 3159 3156 3152 3149 3145 3141 3136 3132 3127 3123
3152 3156 3159 3162 3165 3168 3170 3171 3173 3175 3177 3177 3179 3179 3178 3180 3182 3182 3183 3184 3183 3183 3182 3181 3180 3178 3176 3174 3171 3169 3167 3164 3161 3158 3155 3152 3149 3145 3141 3136 3132 3128 3124
3148 3152 3156 3159 3162 3165 3167 3169 3171 3172 3174 3175 3176 3177 3177 3177 3178 3179 3180 3181 3182 3182 3181 3180 3179 3177 3174 3172 3170 3168 3166 3163 3160 3157 3154 3151 3148 3145 3140 3136 3132 3128 3124
3143 3147 3152 3155 3158 3161 3164 3166 3168 3170 3171 3172 3174 3174 3175 3175 3176 3177 3178 3179 3180 3180 3179 3178 3177 3175 3173 3171 3168 3166 3164 3162 3159 3156 3153 3151 3148 3144 3140 3137 3132 3129 3125
3139 3144 3148 3151 3155 3158 3161 3163 3165 3167 3168 3169 3171 3171 3173 3173 3175 3175 3175 3177 3177 3177 3177 3176 3175 3173 3171 3169 3166 3164 3162 3160 3157 3155 3152 3149 3146 3143 3140 3136 3132 3128 3125
3135 3140 3144 3147 3151 3154 3157 3160 3162 3165 3164 3166 3167 3169 3170 3170 3171 3172 3172 3174 3174 3174 3175 3174 3172 3171 3169 3167 3164 3162 3160 3158 3156 3153 3151 3148 3145 3143 3139 3135 3131 3128 3124
3130 3135 3139 3142 3147 3151 3154 3156 3159 3161 3161 3163 3164 3165 3166 3167 3168 3168 3169 3170 3170 3171 3171 3171 3169 3168 3167 3165 3163 3160 3158 3156 3153 3151 3149 3146 3144 3141 3138 3134 3130 3127 3123
3126 3130 3134 3138 3143 3147 3150 3152 3155 3157 3158 3159 3161 3162 3162 3163 3164 3164 3165 3166 3166 3167 3167 3167 3166 3165 3164 3162 3160 3158 3156 3153 3151 3149 3146 3144 3141 3139 3136 3132 3129 3126 3122
3121 3127 3130 3134 3138 3142 3146 3148 3151 3153 3155 3156 3157 3158 3158 3159 3159 3160 3161 3162 3162 3162 3163 3162 3162 3161 3160 3159 3157 3155 3153 3151 3149 3146 3144 3142 3139 3136 3133 3131 3127 3124 3120
3116 3121 3125 3129 3134 3138 3141 3144 3147 3149 3150 3152 3153 3154 3154 3155 3155 3156 3157 3157 3158 3158 3158 3158 3158 3157 3156 3154 3153 3151 3150 3148 3146 3144 3141 3139 3136 3134 3131 3128 3125 3122 3118
3111 3116 3120 3125 3129 3134 3137 3139 3141 3143 3145 3147 3148 3149 3150 3151 3151 3151 3152 3153 3153 3154 3154 3154 3154 3153 3152 3150 3149 3147 3146 3144 3142 3140 3138 3136 3133 3131 3128 3125 3122 3119 3117
3105 3110 3115 3119 3124 3129 3131 3134 3136 3138 3140 3142 3143 3144 3145 3145 3146 3147 3147 3148 3148 3149 3149 3149 3149 3148 3147 3146 3144 3143 3141 3140 3138 3136 3133 3132 3129 3127 3124 3121 3118 3115 3113
3098 3104 3109 3114 3118 3122 3125 3128 3130 3132 3134 3136 3138 3139 3140 3140 3141 3141 3142 3142 3142 3144 3144 3144 3144 3143 3143 3141 3140 3138 3136 3135 3133 3131 3128 3126 3124 3122 3120 3117 3115 3112 3109
3093 3098 3103 3107 3112 3115 3118 3120 3123 3125 3128 3130 3132 3133 3134 3134 3134 3135 3137 3137 3136 3137 3137 3137 3137 3138 3138 3136 3135 3133 3132 3130 3128 3126 3124 3122 3120 3117 3115 3113 3110 3107 3106